Home   Weather   Zagreb   Past weeks
Flag for Croatia

Past Weather in Zagreb, Croatia — Yesterday and Last 2 Weeks

Now
79 °F

Passing clouds.


Feels Like: 79 °F
Forecast: 82 / 56 °F
Wind: 6 mph from Northeast

Location: Zagreb / Pleso

Current Time: Jul 16, 2019 at 4:53:33 pm

Latest Report: Jul 16, 2019 at 4:00 pm


Visibility: N/A

Pressure: 29.92 "Hg

Humidity: 34%

Dew Point: 48 °F

Location of ZagrebLocation

Past Weather in Zagreb — Graph

°F

Zagreb Temperature Yesterday

Maximum temperature yesterday: 77 °F (at 2:30 pm)
Minimum temperature yesterday: 59 °F (at 2:00 am)
Average temperature yesterday: 68 °F

High & Low Weather Summary for the Past Weeks

 TemperatureHumidityPressure
High95 °F (Jul 1, 3:00 pm)100% (Jul 5, 2:30 am)30.18 "Hg (Jul 5, 2:30 am)
Low50 °F (Jul 11, 4:00 am)26% (Jul 1, 3:00 pm)29.71 "Hg (Jul 7, 1:30 pm)
Average70 °F72%29.95 "Hg
* Reported Jul 1 3:00 pm — Jul 16 3:30 pm, Zagreb. Weather by CustomWeather, © 2019

Note: Actual official high and low records may vary slightly from our data, if they occured in-between our weather recording intervals... More about our weather records

Advertising

Zagreb Weather History for the Previous 24 Hours

Scroll right to see more
 ConditionsComfort  
Time TempWeatherWind HumidityBarometerVisibility
3:30 pm
Tue, Jul 16
79 °FPassing clouds.6 mph37%29.92 "HgN/A
3:00 pm79 °FPassing clouds.7 mph39%29.92 "HgN/A
2:30 pm81 °FSunny.6 mph37%29.92 "Hg10 mi
2:00 pm79 °FPassing clouds.7 mph42%29.92 "HgN/A
1:30 pm79 °FPassing clouds.10 mph39%29.95 "HgN/A
1:00 pm79 °FPassing clouds.9 mph39%29.95 "HgN/A
12:30 pm79 °FPassing clouds.9 mph42%29.95 "HgN/A
12:00 pm77 °FPassing clouds.7 mph47%29.95 "HgN/A
11:30 am77 °FPassing clouds.9 mph44%29.95 "HgN/A
11:00 am77 °FPassing clouds.8 mph42%29.95 "HgN/A
10:30 am75 °FPassing clouds.10 mph44%29.95 "HgN/A
10:00 am73 °FPassing clouds.8 mph50%29.95 "HgN/A
9:30 am73 °FPassing clouds.9 mph44%29.95 "HgN/A
9:00 am68 °FSunny.1 mph64%29.95 "Hg10 mi
8:30 am66 °FSunny.1 mph73%29.95 "Hg10 mi
8:00 am63 °FSunny.2 mph77%29.95 "Hg10 mi
7:30 am61 °FSunny.2 mph83%29.95 "Hg10 mi
7:00 am59 °FSunny.2 mph88%29.95 "Hg10 mi
6:30 am55 °FSunny.3 mph94%29.95 "Hg10 mi
6:00 am54 °FPassing clouds.3 mph94%29.92 "HgN/A
5:30 am54 °FSunny.3 mph94%29.92 "Hg10 mi
5:00 am54 °FClear.2 mph94%29.92 "Hg10 mi
4:30 am54 °FClear.3 mph94%29.92 "Hg10 mi
4:00 am55 °FClear.2 mph94%29.92 "Hg10 mi
3:30 am55 °FClear.3 mph94%29.92 "Hg10 mi
3:00 am55 °FClear.3 mph94%29.92 "Hg10 mi
2:30 am55 °FClear.3 mph94%29.95 "Hg10 mi
2:00 am57 °FClear.3 mph94%29.95 "Hg10 mi
1:30 am57 °FClear.2 mph94%29.95 "Hg10 mi
1:00 am57 °FClear.3 mph94%29.95 "Hg10 mi
12:30 am59 °FClear.2 mph88%29.95 "Hg10 mi
12:00 am61 °FClear.1 mph83%29.92 "Hg10 mi
11:30 pm
Mon, Jul 15
61 °FClear.2 mph88%29.92 "Hg10 mi
11:00 pm64 °FClear.2 mph73%29.92 "Hg10 mi
10:30 pm66 °FClear.2 mph68%29.92 "Hg10 mi
10:00 pm68 °FClear.1 mph69%29.92 "Hg10 mi
9:30 pm70 °FPassing clouds.3 mph60%29.92 "HgN/A
9:00 pm70 °FPassing clouds.3 mph60%29.92 "HgN/A
8:30 pm72 °FPassing clouds.3 mph57%29.89 "HgN/A
8:00 pm72 °FPassing clouds.3 mph57%29.89 "HgN/A
7:30 pm73 °FPassing clouds.6 mph50%29.89 "HgN/A
7:00 pm75 °FPassing clouds.8 mph41%29.89 "HgN/A
6:30 pm75 °FPassing clouds.7 mph44%29.89 "HgN/A
6:00 pm75 °FPassing clouds.6 mph47%29.89 "HgN/A
5:30 pm75 °FPassing clouds.10 mph47%29.89 "HgN/A
5:00 pm75 °FPassing clouds.9 mph47%29.89 "HgN/A
4:30 pm75 °FPassing clouds.8 mph47%29.89 "HgN/A
4:00 pm77 °FPassing clouds.10 mph44%29.89 "HgN/A
Weather by CustomWeather, © 2019

See weather overview

LIVE PARTIAL LUNAR ECLIPSE – Watch the eclipse as it happens